Location: Piolenc
(44.1794°N, 4.7641°E)
Time: 04:23:40
(UTC+00:00)

Meteor 1-11 - Pass Details

Date: 27 January 2021
Orbit: 840 x 887 km, 81.2° (Epoch: 27 February)

Event Time Altitude Azimuth Distance (km) Brightness Sun altitude
Rises 05:38:03 0° 345° (NNW) 3,407 7.1 -15.4°
Reaches altitude 10° 05:40:30 10° 342° (NNW) 2,467 6.3 -15.0°
Maximum altitude 05:45:57 57° 265° (W) 984 4.2 -14.1°
Drops below altitude 10° 05:51:23 10° 188° (S) 2,458 6.7 -13.1°
Sets 05:53:50 0° 184° (S) 3,393 7.5 -12.7°
